Regional Weather Roundup
Issued by NWS

Home | Current Version | Previous Version | Text Only | Print | Product List | Glossary Off
Versions: 1 2 3 4 5 6 7 8 9 10 11 12 13 14 15 16 17 18 19 20 21 22 23 24 25 26 27 28 29 30 31 32 33 34 35 36 37 38 39 40 41 42 43 44 45 46 47 48 49 50

000
ASUS43 KBIS 281710
RWRND

NORTH DAKOTA REGIONAL WEATHER ROUNDUP
NATIONAL WEATHER SERVICE BISMARCK ND
1200 PM CDT WED SEP 28 2016

NOTE: "FAIR" INDICATES FEW OR NO CLOUDS BELOW 12,000 FEET WITH NO
SIGNIFICANT WEATHER AND/OR OBSTRUCTIONS TO VISIBILITY.


NDZ001>003-009>011-017-281800-
NORTHWEST NORTH DAKOTA

CITY           SKY/WX    TMP DP  RH WIND       PRES   REMARKS
WILLISTON      SUNNY     60  49  66 NE6       30.27R
MINOT          SUNNY     62  45  53 E6        30.27S
MINOT AFB      SUNNY     62  44  50 E7        30.26S
$$

NDZ018>021-031>035-040>046-281800-
SOUTHWEST NORTH DAKOTA

CITY           SKY/WX    TMP DP  RH WIND       PRES   REMARKS
BISMARCK       SUNNY     60  44  55 S3        30.29R
DICKINSON      SUNNY     65  48  54 CALM      30.24R
GARRISON         N/A     64  39  39 VRB5      30.27R
HETTINGER ARPT SUNNY     66  47  50 VRB5      30.27R
$$

NDZ004>008-012>016-024-026-027-054-281800-
NORTHEAST NORTH DAKOTA

CITY           SKY/WX    TMP DP  RH WIND       PRES   REMARKS
GRAND FORKS    CLOUDY    56  45  66 VRB5      30.31R
GRND FRKS AFB  CLOUDY    54  45  71 E2        30.31S
DEVILS LAKE    CLOUDY    49  44  83 CALM      30.32R
$$

NDZ022-023-025-028>030-036>039-047>053-281800-
SOUTHEAST NORTH DAKOTA

CITY           SKY/WX    TMP DP  RH WIND       PRES   REMARKS
FARGO          CLOUDY    54  46  74 N6        30.29S
JAMESTOWN      PTSUNNY   52  45  77 W3        30.30R
$$





USA.gov is the U.S. government's official web portal to all federal, state and local government web resources and services.